Home   Weather   Burlington   Past weeks

Flag for Canada Past Weather in Burlington, Ontario, Canada — Yesterday and Last 2 Weeks

Now
63 °F

Mild.


Feels Like: 63 °F
Forecast: 58 / 63 °F
Wind: 18 mph from East

Location: Burlington Piers

Current Time: Sep 30, 2016 at 6:08:17 AM

Latest Report: Sep 30, 2016 at 5:00 AM


Visibility: N/A

Pressure: 30.30 "Hg

Humidity: 67%

Dew Point: 51 °F

Location of BurlingtonLocation

Past Weather in Burlington — Graph

°F

Burlington Temperature Yesterday

Maximum temperature yesterday: 67 °F (at 1:00 AM)
Minimum temperature yesterday: 58 °F (at 5:00 PM)
Average temperature yesterday: 62 °F

High & Low Weather Summary for the Past Weeks

 TemperatureHumidityPressure
High81 °F (Sep 20, 3:00 PM)94% (Sep 23, 12:00 PM)30.35 "Hg (Sep 23, 12:00 PM)
Low52 °F (Sep 24, 8:00 AM)25% (Sep 20, 9:00 PM)29.73 "Hg (Sep 27, 3:00 PM)
Average66 °F68%30.08 "Hg
* Reported Sep 15 5:00 AM — Sep 30 5:00 AM, Burlington, Weather by CustomWeather, © 2016

Note: Actual official high and low records may vary slightly from our data, if they occured in-between our weather recording intervals... More about our weather records

Advertising

Burlington Weather History for the Previous 24 Hours

Scroll right to see more
 ConditionsComfort  
Time TempWeatherWind HumidityBarometerVisibility
5:00 AM
Fri, Sep 30
63 °FMild.18 mph67%30.30 "HgN/A
4:00 AM62 °FCool.20 mph67%30.29 "HgN/A
3:00 AM62 °FCool.20 mph69%30.30 "HgN/A
2:00 AM62 °FMild.21 mph69%30.31 "HgN/A
1:00 AM63 °FMild.23 mph67%30.31 "HgN/A
12:00 AM63 °FMild.20 mph69%30.33 "HgN/A
11:00 PM
Thu, Sep 29
60 °FCool.22 mph82%30.35 "HgN/A
10:00 PM60 °FCool.22 mph76%30.35 "HgN/A
9:00 PM63 °FMild.26 mph71%30.32 "HgN/A
8:00 PM62 °FMild.24 mph78%30.32 "HgN/A
7:00 PM61 °FCool.28 mph81%30.32 "HgN/A
6:00 PM60 °FCool.28 mph88%30.31 "HgN/A
5:00 PM58 °FCool.29 mph93%30.29 "HgN/A
4:00 PM60 °FCool.31 mph82%30.29 "HgN/A
3:00 PM60 °FCool.31 mph76%30.29 "HgN/A
2:00 PM60 °FCool.30 mph83%30.29 "HgN/A
1:00 PM60 °FCool.29 mph83%30.30 "HgN/A
12:00 PM61 °FCool.31 mph83%30.30 "HgN/A
11:00 AM60 °FCool.30 mph86%30.28 "HgN/A
10:00 AM61 °FCool.28 mph86%30.27 "HgN/A
9:00 AM62 °FCool.28 mph81%30.26 "HgN/A
8:00 AM63 °FMild.28 mph78%30.24 "HgN/A
7:00 AM63 °FMild.28 mph76%30.21 "HgN/A
6:00 AM64 °FMild.29 mph75%30.21 "HgN/A
Weather by CustomWeather, © 2016

See weather overviewHow to use our weather pages